K5GLH Weather Reports


time (UTC)temp
C
wind
direction
speed
KPH
gust
KPH
rain 1hr
cm
rain 24hr
cm
rain mn
cm
humidity
%
barometer
mb
20260510033545 23 129 3.2 9.7 0.00 0.05 0.05 57 1007.3
20260510033049 23 152 6.4 9.7 0.00 0.05 0.05 57 1007.3
20260510032544 23 120 4.8 8.0 0.00 0.05 0.05 57 1007.5
20260510032047 23 91 3.2 9.7 0.00 0.05 0.05 57 1007.6
20260510031618 23 45 1.6 17.7 0.00 0.05 0.05 58 1007.5
20260510031043 23 357 6.4 19.3 0.00 0.05 0.05 58 1007.0
20260510030544 23 97 6.4 20.9 0.00 0.05 0.05 58 1006.3
20260510030046 23 116 8.0 20.9 0.00 0.05 0.05 58 1006.2
20260510025543 23 103 9.7 19.3 0.00 0.05 0.05 57 1006.8
20260510025044 23 357 6.4 16.1 0.00 0.05 0.05 57 1008.0
20260510024545 23 108 1.6 16.1 0.00 0.05 0.05 56 1008.6
20260510024042 23 357 6.4 16.1 0.00 0.05 0.05 55 1008.1
20260510023542 24 144 4.8 11.3 0.00 0.05 0.05 55 1008.3
20260510023051 24 179 3.2 9.7 0.00 0.05 0.05 54 1008.2
20260510022542 24 166 4.8 12.9 0.00 0.05 0.05 53 1007.9
20260510022041 24 123 4.8 17.7 0.00 0.05 0.05 53 1007.6
20260510021545 24 104 6.4 17.7 0.00 0.05 0.05 52 1007.6
20260510021041 24 150 4.8 11.3 0.00 0.05 0.05 52 1007.6
20260510020546 25 357 3.2 14.5 0.00 0.05 0.05 51 1007.1
20260510020043 25 118 4.8 14.5 0.00 0.05 0.05 51 1006.9
20260510015542 25 118 8.0 12.9 0.00 0.05 0.05 50 1006.8
20260510015041 25 130 6.4 12.9 0.00 0.05 0.05 49 1006.8
20260510014541 25 137 4.8 8.0 0.00 0.05 0.05 49 1006.6
20260510014040 25 135 1.6 9.7 0.00 0.05 0.05 49 1006.7
20260510013542 25 121 3.2 12.9 0.00 0.05 0.05 48 1006.5
20260510013041 25 357 4.8 12.9 0.00 0.05 0.05 48 1006.4
20260510012541 25 357 6.4 14.5 0.00 0.05 0.05 48 1006.3
20260510012043 25 131 3.2 14.5 0.00 0.05 0.05 48 1006.4
20260510011555 26 118 4.8 12.9 0.00 0.05 0.05 47 1006.5
20260510011039 26 357 4.8 14.5 0.00 0.05 0.05 47 1006.2
20260510010543 26 357 6.4 14.5 0.00 0.05 0.05 46 1006.2
20260510010050 26 137 3.2 11.3 0.00 0.05 0.05 46 1006.3
20260510005539 26 110 1.6 6.4 0.00 0.05 0.05 46 1006.2
20260510005040 26 143 0.0 4.8 0.00 0.05 0.05 45 1006.4
20260510004538 26 143 1.6 4.8 0.00 0.05 0.05 44 1006.5
20260510004043 26 144 0.0 12.9 0.00 0.05 0.05 43 1006.4
20260510003538 26 145 4.8 12.9 0.00 0.05 0.05 43 1006.2
20260510003038 26 146 1.6 12.9 0.00 0.05 0.05 43 1006.2
20260510002537 26 139 4.8 12.9 0.00 0.05 0.05 43 1006.2
20260510002037 26 357 3.2 14.5 0.00 0.05 0.05 42 1006.2
20260510001537 27 101 4.8 16.1 0.00 0.05 0.05 42 1006.4
20260510001036 27 357 4.8 16.1 0.00 0.05 0.05 42 1006.4
20260510000537 27 125 4.8 17.7 0.00 0.05 0.05 41 1006.2
20260510000037 27 357 6.4 17.7 0.00 0.05 0.05 41 1006.3
20260509235535 27 87 6.4 14.5 0.00 0.41 0.05 41 1006.4
20260509235035 27 123 4.8 20.9 0.00 0.41 0.05 42 1006.4
20260509234536 27 161 8.0 22.5 0.00 0.41 0.05 41 1006.5
20260509234033 28 104 9.7 22.5 0.00 0.41 0.05 40 1006.4
20260509233535 28 357 6.4 17.7 0.00 0.41 0.05 42 1006.5
20260509233033 28 357 6.4 20.9 0.00 0.41 0.05 41 1006.5
20260509232533 28 138 8.0 20.9 0.00 0.41 0.05 42 1006.6
20260509232032 28 103 8.0 27.4 0.00 0.41 0.05 43 1006.6
20260509231532 28 176 9.7 27.4 0.00 0.41 0.05 42 1006.5
20260509231031 28 357 9.7 17.7 0.00 0.41 0.05 41 1006.6
20260509230631 28 357 8.0 16.1 0.00 0.41 0.05 42 1006.7
20260509230030 28 141 6.4 17.7 0.00 0.41 0.05 42 1006.8
20260509225530 28 123 9.7 19.3 0.00 0.41 0.05 41 1006.9
20260509225029 28 357 6.4 19.3 0.00 0.41 0.05 41 1007.1
20260509224529 28 133 6.4 14.5 0.00 0.41 0.05 41 1007.2
20260509224028 28 357 6.4 12.9 0.00 0.41 0.05 40 1007.2
20260509223529 28 154 8.0 16.1 0.00 0.41 0.05 41 1007.3
20260509223029 28 357 4.8 16.1 0.00 0.41 0.05 42 1007.3
20260509222527 28 189 4.8 14.5 0.00 0.41 0.05 41 1007.4
20260509222029 28 193 8.0 14.5 0.00 0.41 0.05 40 1007.4
20260509221531 28 198 6.4 17.7 0.00 0.41 0.05 40 1007.3
20260509221027 28 357 6.4 16.1 0.00 0.41 0.05 39 1007.3
20260509220527 28 357 6.4 16.1 0.00 0.41 0.05 40 1007.4
20260509220026 28 357 8.0 16.1 0.00 0.41 0.05 39 1007.3
20260509215530 28 179 6.4 16.1 0.00 0.41 0.05 40 1007.4
20260509215027 28 185 3.2 12.9 0.00 0.41 0.05 41 1007.4
20260509214525 28 357 4.8 16.1 0.00 0.41 0.05 39 1007.4
20260509214025 28 200 8.0 16.1 0.00 0.41 0.05 39 1007.5
20260509213505 28 357 4.8 17.7 0.00 0.41 0.05 40 1007.5
20260509213005 28 357 8.0 17.7 0.00 0.41 0.05 40 1007.6
20260509212506 28 357 6.4 14.5 0.00 0.41 0.05 39 1007.6
20260509212004 28 181 4.8 12.9 0.00 0.41 0.05 39 1007.6
20260509211504 28 197 1.6 11.3 0.00 0.41 0.05 39 1007.8
20260509211003 28 127 4.8 11.3 0.00 0.41 0.05 39 1007.9
20260509210503 28 167 4.8 14.5 0.00 0.41 0.05 38 1007.9
20260509210003 28 209 6.4 14.5 0.00 0.41 0.05 39 1007.9
20260509205502 28 164 3.2 16.1 0.00 0.41 0.05 39 1007.9
20260509205005 28 357 3.2 16.1 0.00 0.41 0.05 38 1007.9
20260509204502 28 357 4.8 9.7 0.00 0.41 0.05 39 1008.0
20260509204101 28 60 1.6 12.9 0.00 0.41 0.05 36 1008.0
20260509203559 28 357 6.4 12.9 0.00 0.41 0.05 37 1008.0
20260509203101 28 123 1.6 14.5 0.00 0.41 0.05 37 1008.1
20260509202558 28 130 6.4 14.5 0.00 0.41 0.05 37 1008.1
20260509202057 28 179 4.8 14.5 0.00 0.41 0.05 38 1008.2
20260509201557 28 118 3.2 14.5 0.00 0.41 0.05 39 1008.4
20260509201055 28 357 6.4 14.5 0.00 0.41 0.05 38 1008.3
20260509200555 28 357 4.8 24.1 0.00 0.41 0.05 39 1008.6
20260509200055 28 145 4.8 24.1 0.00 0.41 0.05 39 1008.5
20260509195555 28 172 4.8 12.9 0.00 0.41 0.05 39 1008.6
20260509195054 28 357 3.2 11.3 0.00 0.41 0.05 34 1008.7
20260509194554 28 357 3.2 9.7 0.00 0.41 0.05 38 1008.7
20260509194052 28 357 1.6 8.0 0.00 0.41 0.05 37 1008.8
20260509193553 28 357 4.8 9.7 0.00 0.41 0.05 33 1008.7
20260509193050 27 220 3.2 9.7 0.00 0.41 0.05 32 1008.8
20260509192550 27 357 6.4 9.7 0.00 0.41 0.05 34 1008.9
20260509192049 27 131 1.6 9.7 0.00 0.41 0.05 31 1009.0
20260509191549 27 357 6.4 14.5 0.00 0.41 0.05 34 1009.1
20260509191049 27 357 4.8 9.7 0.00 0.41 0.05 34 1009.0
20260509190547 27 357 4.8 9.7 0.00 0.41 0.05 34 1009.1
20260509190052 27 266 3.2 11.3 0.00 0.41 0.05 31 1009.2
20260509185540 27 185 6.4 11.3 0.00 0.41 0.05 34 1009.2
20260509185039 27 130 4.8 12.9 0.00 0.41 0.05 34 1009.3
20260509184539 27 357 4.8 11.3 0.00 0.41 0.05 37 1009.5
20260509184037 27 183 4.8 9.7 0.00 0.41 0.05 38 1009.5
20260509183537 27 185 1.6 11.3 0.00 0.41 0.05 37 1009.5
20260509183038 27 185 3.2 14.5 0.00 0.41 0.05 38 1009.7
20260509182536 27 357 6.4 14.5 0.00 0.41 0.05 40 1009.6
20260509182035 26 357 3.2 17.7 0.00 0.41 0.05 40 1009.7
20260509181535 27 357 6.4 14.5 0.00 0.41 0.05 40 1009.8
20260509181035 27 357 3.2 12.9 0.00 0.41 0.05 43 1009.8
20260509180533 27 357 1.6 9.7 0.00 0.41 0.05 44 1009.9
20260509180033 26 167 3.2 9.7 0.00 0.41 0.05 44 1010.0
20260509175532 26 357 3.2 14.5 0.00 0.41 0.05 43 1010.1
20260509175036 26 123 6.4 14.5 0.00 0.41 0.05 43 1010.1
20260509174534 26 183 3.2 12.9 0.00 0.41 0.05 41 1010.2
20260509174033 26 357 3.2 12.9 0.00 0.41 0.05 44 1010.3
20260509173529 26 357 1.6 9.7 0.00 0.41 0.05 46 1010.4
20260509173028 26 131 3.2 9.7 0.00 0.41 0.05 43 1010.5
20260509172534 26 136 3.2 14.5 0.00 0.41 0.05 43 1010.6
20260509172027 26 178 4.8 14.5 0.00 0.41 0.05 47 1010.6
20260509171527 26 195 1.6 9.7 0.00 0.41 0.05 47 1010.6
20260509171026 25 357 4.8 12.9 0.00 0.41 0.05 50 1010.7
20260509170524 25 357 3.2 12.9 0.00 0.41 0.05 52 1010.8
20260509170024 25 187 3.2 8.0 0.00 0.41 0.05 50 1010.7
20260509165522 25 357 3.2 11.3 0.00 0.41 0.05 53 1010.9
20260509165023 25 357 3.2 11.3 0.03 0.41 0.05 54 1010.8
20260509164521 25 357 3.2 12.9 0.03 0.41 0.05 54 1010.9
20260509164021 25 357 6.4 12.9 0.03 0.41 0.05 51 1010.9
20260509163518 25 90 4.8 12.9 0.03 0.41 0.05 55 1010.8
20260509163022 24 133 3.2 12.9 0.03 0.41 0.05 54 1010.9
20260509162516 24 357 6.4 12.9 0.03 0.41 0.05 57 1010.9
20260509162017 23 208 4.8 16.1 0.03 0.41 0.05 63 1010.9
20260509161517 23 172 4.8 12.9 0.03 0.41 0.05 62 1010.9
20260509161013 23 357 4.8 11.3 0.03 0.41 0.05 65 1010.9
20260509160514 23 357 4.8 9.7 0.03 0.41 0.05 68 1010.9
20260509160013 23 111 4.8 14.5 0.03 0.41 0.05 71 1010.8
20260509155512 23 357 4.8 14.5 0.03 0.41 0.05 71 1010.9
20260509155012 23 134 4.8 14.5 0.00 0.38 0.03 69 1010.7
20260509154511 23 357 3.2 14.5 0.00 0.38 0.03 68 1010.8
20260509154012 23 357 4.8 12.9 0.00 0.38 0.03 67 1010.8
20260509153609 23 357 3.2 11.3 0.00 0.38 0.03 68 1010.7
20260509153017 23 357 4.8 12.9 0.00 0.38 0.03 69 1010.9
20260509152507 23 126 0.0 12.9 0.00 0.38 0.03 66 1010.9
20260509152008 23 357 6.4 9.7 0.00 0.38 0.03 64 1010.8
20260509151506 22 124 1.6 11.3 0.00 0.38 0.03 70 1010.8
20260509151004 22 141 4.8 11.3 0.00 0.38 0.03 70 1010.8
20260509150503 22 138 1.6 12.9 0.00 0.38 0.03 75 1010.6
20260509150004 22 357 6.4 12.9 0.00 0.38 0.03 74 1010.6
20260509145502 21 357 1.6 6.4 0.00 0.38 0.03 79 1010.6
20260509145100 21 112 0.0 6.4 0.00 0.38 0.03 79 1010.6
20260509144558 20 110 3.2 6.4 0.00 0.38 0.03 82 1010.6
20260509144059 20 357 3.2 6.4 0.00 0.38 0.03 85 1010.6
20260509143554 20 97 0.0 6.4 0.00 0.38 0.03 88 1010.7
20260509143055 19 98 0.0 6.4 0.00 0.38 0.03 90 1010.7
20260509142551 18 96 0.0 0.0 0.00 0.38 0.03 93 1010.7
20260509142050 18 357 0.0 0.0 0.00 0.38 0.03 94 1010.7
20260509141550 17 79 0.0 0.0 0.00 0.38 0.03 94 1010.6
20260509141049 17 357 0.0 0.0 0.00 0.38 0.03 94 1010.7
20260509140546 17 81 0.0 0.0 0.00 0.38 0.03 94 1010.7
20260509140049 16 77 0.0 0.0 0.00 0.38 0.03 95 1010.7
20260509135543 16 357 0.0 0.0 0.00 0.38 0.03 95 1010.7
20260509135043 16 357 0.0 0.0 0.00 0.38 0.03 94 1010.6
20260509134551 16 77 0.0 0.0 0.00 0.38 0.03 94 1010.6
20260509134042 16 79 0.0 0.0 0.00 0.38 0.03 94 1010.5
20260509133543 16 357 0.0 0.0 0.00 0.38 0.03 94 1010.4
20260509133054 15 357 0.0 0.0 0.00 0.38 0.03 94 1010.3
20260509132540 15 78 0.0 0.0 0.00 0.38 0.03 94 1010.3
20260509132041 15 357 0.0 0.0 0.00 0.38 0.03 94 1010.3
20260509131542 15 357 0.0 0.0 0.00 0.38 0.03 95 1010.3
20260509131043 15 357 0.0 0.0 0.00 0.38 0.03 95 1010.4
20260509130540 14 83 0.0 0.0 0.00 0.38 0.03 94 1010.3
20260509130043 14 357 0.0 0.0 0.00 0.38 0.03 94 1010.3
20260509125540 13 81 0.0 0.0 0.00 0.38 0.03 94 1010.2
20260509125039 13 81 0.0 0.0 0.00 0.38 0.03 94 1010.0
20260509124539 13 357 0.0 0.0 0.00 0.38 0.03 94 1009.9
20260509124039 13 79 0.0 0.0 0.00 0.38 0.03 94 1010.0
20260509123538 13 79 0.0 0.0 0.00 0.38 0.03 94 1010.0
20260509123038 12 80 0.0 0.0 0.00 0.38 0.03 94 1010.0
20260509122539 12 80 0.0 0.0 0.00 0.38 0.03 94 1010.0
20260509122040 12 79 0.0 0.0 0.00 0.38 0.03 93 1009.9
20260509121540 12 79 0.0 0.0 0.00 0.38 0.03 93 1009.8
20260509121039 12 79 0.0 0.0 0.00 0.38 0.03 93 1009.8
20260509120537 12 79 0.0 0.0 0.00 0.38 0.03 93 1009.9
20260509120037 12 357 0.0 0.0 0.00 0.38 0.03 93 1009.7
20260509115536 12 80 0.0 0.0 0.00 0.38 0.03 93 1009.8
20260509115038 12 79 0.0 0.0 0.00 0.38 0.03 93 1009.6
20260509114541 12 81 0.0 0.0 0.00 0.38 0.03 93 1009.4
20260509114036 12 357 0.0 0.0 0.00 0.38 0.03 93 1009.2
20260509113535 12 357 0.0 0.0 0.00 0.38 0.03 93 1009.1
20260509113034 12 79 0.0 0.0 0.00 0.38 0.03 93 1009.1
20260509112534 12 81 0.0 0.0 0.00 0.38 0.03 92 1009.0
20260509112033 12 80 0.0 0.0 0.00 0.38 0.03 92 1008.9
20260509111535 12 81 0.0 0.0 0.00 0.38 0.03 92 1008.9
20260509111033 12 357 0.0 0.0 0.00 0.38 0.03 92 1008.9
20260509110532 12 81 0.0 0.0 0.00 0.38 0.03 92 1009.0
20260509110031 13 82 0.0 0.0 0.00 0.38 0.03 92 1008.9
20260509105533 13 357 0.0 0.0 0.00 0.38 0.03 92 1008.7
20260509105030 13 357 0.0 0.0 0.00 0.38 0.03 92 1008.9
20260509104534 13 357 0.0 0.0 0.00 0.38 0.03 92 1008.8
20260509104031 13 80 0.0 0.0 0.00 0.38 0.03 92 1008.9
20260509103529 13 81 0.0 0.0 0.00 0.38 0.03 92 1008.9
20260509103029 13 81 0.0 0.0 0.00 0.38 0.03 92 1008.9
20260509102527 13 81 0.0 0.0 0.00 0.38 0.03 92 1009.1
20260509102026 13 81 0.0 0.0 0.00 0.38 0.03 92 1009.0
20260509101526 13 81 0.0 0.0 0.00 0.38 0.03 92 1009.2
20260509101025 13 81 0.0 0.0 0.00 0.38 0.03 92 1009.3
20260509100524 13 357 0.0 0.0 0.00 0.38 0.03 92 1009.3
20260509100026 13 357 0.0 0.0 0.00 0.38 0.03 92 1009.4
20260509095524 14 357 0.0 0.0 0.00 0.38 0.03 92 1009.5
20260509095022 14 80 0.0 0.0 0.00 0.38 0.03 92 1009.6
20260509094522 14 357 0.0 0.0 0.03 0.38 0.03 92 1009.6
20260509094022 14 357 0.0 0.0 0.03 0.38 0.03 92 1009.5
20260509093524 14 357 0.0 0.0 0.03 0.38 0.03 92 1009.5
20260509093022 14 357 0.0 0.0 0.03 0.38 0.03 92 1009.6
20260509092521 14 357 0.0 0.0 0.03 0.38 0.03 92 1009.4
20260509092021 14 81 0.0 0.0 0.03 0.38 0.03 92 1009.4
20260509091528 14 80 0.0 3.2 0.03 0.38 0.03 92 1009.4
20260509091021 14 357 0.0 3.2 0.03 0.38 0.03 92 1009.5
20260509090521 14 357 0.0 0.0 0.03 0.38 0.03 92 1009.5
20260509090023 14 357 0.0 0.0 0.03 0.38 0.03 92 1009.5
20260509085520 14 357 0.0 0.0 0.03 0.38 0.03 92 1009.4
20260509085020 14 80 0.0 0.0 0.03 0.38 0.03 92 1009.3
20260509084526 14 79 0.0 0.0 0.00 0.36 0.00 91 1009.2
20260509084020 14 79 0.0 0.0 0.00 0.36 0.00 91 1009.2
20260509083520 14 80 0.0 0.0 0.00 0.36 0.00 91 1009.2
20260509083017 14 80 0.0 0.0 0.00 0.36 0.00 91 1009.2
20260509082516 14 80 0.0 0.0 0.00 0.36 0.00 91 1009.2
20260509082016 14 80 0.0 0.0 0.00 0.36 0.00 91 1009.3
20260509081515 15 79 0.0 0.0 0.00 0.36 0.00 91 1009.4
20260509081014 15 79 0.0 0.0 0.00 0.36 0.00 91 1009.4
20260509080513 15 80 0.0 0.0 0.00 0.36 0.00 91 1009.6
20260509080022 15 79 0.0 0.0 0.00 0.36 0.00 91 1009.6
20260509075512 15 79 0.0 0.0 0.00 0.36 0.00 91 1009.7
20260509075015 15 79 0.0 0.0 0.00 0.36 0.00 91 1009.6
20260509074513 15 79 0.0 0.0 0.00 0.36 0.00 91 1009.8
20260509074010 15 80 0.0 0.0 0.00 0.36 0.00 91 1009.9
20260509073509 15 81 0.0 0.0 0.00 0.36 0.00 91 1009.9
20260509073023 15 357 0.0 0.0 0.00 0.36 0.00 91 1009.9
20260509072509 15 82 0.0 0.0 0.00 0.36 0.00 91 1009.9
20260509072009 15 357 0.0 0.0 0.00 0.36 0.00 91 1010.0
20260509071507 15 80 0.0 0.0 0.00 0.36 0.00 91 1009.9
20260509071007 15 83 0.0 3.2 0.00 0.36 0.00 91 1010.1
20260509070511 15 357 0.0 3.2 0.00 0.36 0.00 91 1010.1
20260509070007 15 81 0.0 4.8 0.00 0.36 0.00 91 1010.1
20260509065510 15 80 0.0 6.4 0.00 0.36 0.00 91 1010.1
20260509065005 15 357 0.0 6.4 0.00 0.36 0.00 90 1010.0
20260509064505 15 77 0.0 0.0 0.00 0.36 0.00 90 1009.9
20260509064007 15 77 0.0 0.0 0.00 0.36 0.00 90 1010.1
20260509063504 16 79 0.0 0.0 0.00 0.36 0.00 90 1010.3
20260509063003 16 78 0.0 0.0 0.00 0.36 0.00 90 1010.2
20260509062505 16 78 0.0 0.0 0.00 0.36 0.00 90 1010.2
20260509062001 16 79 0.0 0.0 0.00 0.36 0.00 90 1010.1
20260509061501 16 357 0.0 0.0 0.00 0.36 0.00 90 1010.2
20260509061003 16 79 0.0 0.0 0.00 0.36 0.00 90 1010.2
20260509060559 16 357 0.0 3.2 0.00 0.36 0.00 90 1010.3
20260509060100 16 78 0.0 6.4 0.00 0.36 0.00 90 1010.3
20260509055602 16 79 0.0 6.4 0.00 0.36 0.00 90 1010.4
20260509055059 16 357 3.2 6.4 0.00 0.36 0.00 90 1010.4
20260509054605 16 38 0.0 0.0 0.00 0.36 0.00 89 1010.5
20260509054058 16 37 0.0 0.0 0.00 0.36 0.00 89 1010.4
20260509053556 16 37 0.0 0.0 0.00 0.36 0.00 89 1010.2
20260509053055 16 357 0.0 1.6 0.00 0.36 0.00 89 1010.1
20260509052554 16 357 0.0 1.6 0.00 0.36 0.00 89 1010.0
20260509052053 16 35 0.0 4.8 0.00 0.36 0.00 89 1010.0
20260509051601 16 38 0.0 4.8 0.00 0.36 0.00 89 1010.0
20260509051053 16 36 0.0 4.8 0.00 0.36 0.00 89 1010.0
20260509050551 16 37 1.6 4.8 0.00 0.36 0.00 89 1009.9
20260509050050 16 357 0.0 4.8 0.00 0.36 0.00 89 1009.8
20260509045550 16 357 0.0 12.9 0.00 0.36 0.36 89 1009.8
20260509045050 16 357 1.6 12.9 0.00 0.36 0.36 90 1009.7
20260509044551 16 45 0.0 4.8 0.00 0.36 0.36 89 1009.7
20260509044051 16 43 0.0 8.0 0.00 0.36 0.36 89 1009.7
20260509043552 16 357 0.0 8.0 0.00 0.36 0.36 89 1009.7
20260509043056 16 54 0.0 6.4 0.00 0.36 0.36 89 1009.8
20260509042551 16 357 1.6 8.0 0.00 0.36 0.36 89 1009.7
20260509042049 16 357 1.6 8.0 0.00 0.36 0.36 89 1009.7
20260509041551 16 357 0.0 0.0 0.00 0.36 0.36 89 1009.7
20260509041051 16 132 0.0 3.2 0.00 0.36 0.36 89 1009.7
20260509040550 16 131 0.0 3.2 0.00 0.36 0.36 89 1009.7
20260509040100 16 133 0.0 4.8 0.00 0.36 0.36 89 1009.6
20260509035548 16 133 0.0 8.0 0.00 0.36 0.36 89 1009.6
20260509035048 16 357 4.8 8.0 0.00 0.36 0.36 89 1009.6
20260509034548 16 133 1.6 4.8 0.00 0.36 0.36 89 1009.6
20260509034047 16 357 0.0 1.6 0.00 0.36 0.36 89 1009.6